Overview Statistics Trail Chart Weather Telemetry Raw packets
 

This is the latest recevied weather packets stored in our database for station/object N5PUP-13. If no packets are shown the sender has not sent any weather packets the latest 10 day(s).

<< 101 102 103 104 105 106 107 >>
Time Temp. Humidity Pressure Rain* Wind** Luminosity Snow
1787811002 25.56° C 66% 1018.2 hPa 0 mm - - -
1787810700 25.56° C 65% 1018.2 hPa 0 mm - - -
1787810400 25.56° C 63% 1018.3 hPa 0 mm - - -
1787810100 26.11° C 64% 1018.3 hPa 0 mm - - -
1787809800 25.56° C 65% 1018.3 hPa 0 mm - - -
1787809500 26.11° C 64% 1018.3 hPa 0 mm - - -
1787809200 26.11° C 64% 1018.3 hPa 0 mm - - -
1787808900 26.11° C 63% 1018.3 hPa 0 mm - - -
1787808600 26.11° C 63% 1018.1 hPa 0 mm - - -
1787808300 26.11° C 63% 1018 hPa 0 mm - - -
1787808000 26.67° C 63% 1018 hPa 0 mm - - -
1787807700 26.67° C 63% 1018 hPa 0 mm - - -
1787807400 26.11° C 63% 1018.1 hPa 0 mm - - -
1787807100 26.67° C 63% 1018.1 hPa 0 mm - - -
1787806800 26.67° C 62% 1018 hPa 0 mm - - -
1787806500 26.67° C 61% 1018 hPa 0 mm - - -
1787806206 26.67° C 61% 1018 hPa 0 mm - - -
1787805900 26.67° C 61% 1018 hPa 0 mm - - -
1787805600 26.67° C 60% 1018 hPa 0 mm - - -
1787805000 26.67° C 61% 1017.8 hPa 0 mm - - -
1787804700 26.67° C 62% 1017.8 hPa 0 mm - - -
1787804400 26.67° C 61% 1017.8 hPa 0 mm - - -
1787804100 27.22° C 60% 1017.8 hPa 0 mm - - -
1787803800 27.22° C 60% 1017.7 hPa 0 mm - - -
1787803500 27.22° C 60% 1017.6 hPa 0 mm - - -

* Rain latest hour (hover to see other rain measurements)
** Current wind speed in m/s (hover to see current wind gust speed)